Showing default

HAWK-11A, 62382

Orbit data source: Space-Track

HAWK-11A, 62382 is a payload satellite owned by HawkEye 360 (US) in LEO that was launched on Sat, 21 Dec 2024 UTC via an FALCON 9 launch vehicle from the Air Force Western Test Range (AFWTR). Payload-class satellites include a variety of spacecraft equipped with specific instruments for various scientific and technological missions. These include communications satellites like Starlink; space stations such as the ISS; scientific satellites like the Hubble; Earth observation satellites from companies like Planet Labs, Umbra, and HawkEye 360; GPS; miniature CubeSats for education and research; and military/defense satellites.

Loading next visibility...
Identifier
62382, 2024-247F
Orbit
LEO
Country
Flag of USUS
Related business
Manufacturer
UTIAS-SFL
Mission
Operational Commercial Sigint
Bus & Motor
HAWK2G, Unknown motor
Mass
31 kg wet, 30 kg dry
Launch date (UTC)
2024-12-21 (1 year ago)
Launch vehicle
FALCON 9
Launch site
Air Force Western Test Range (AFWTR)
Object type
Payload
Rocket body
Debris
Shape & HBR
Box + 2 Pan, 1.0 m
Radar Cross Section
0.240 m², Medium (>0.1 m² and < 1m²)

Expand to show TLE details & history
Last TLE update: 14 hours ago

TLE from 14 hours ago
0 HAWK-11A
1 62382U 24247F   25345.05522872  .00011789  00000-0  44583-3 0  9993
2 62382  44.9914 237.5424 0004378 175.6590 184.4331 15.27071413 54213
Epoch: 2025-12-11T01:19Z
TLE epoch observation values (Epoch: 2025-12-11T01:19:31.761Z)
Latitude
-0.00004°
Longitude
137.64332°
Altitude
487.565 km
Speed
7.621 km/s
True Right ascension
15h 50m 10s
True Declination
0° 00' 00"
Sunlit
Object was in daylight at epoch
Visualization orbit readout
Latitude
Unknown
Longitude
Unknown
Altitude
Unknown
Speed
Unknown
Apparent Right ascension
Unknown
Apparent Declination
Unknown
Sunlit
N/A
Visualization observer readout
Local Sidereal Time
14:07:50
Azimuth
Unknown
Elevation
Unknown
Doppler factor
Unknown
Orbital elements
Apogee altitude
489.188 km
Perigee altitude
483.178 km
Semi-major axis
6,864.32 km
Eccentricity
0.00044
Inclination
44.9914°
RAAN
237.5424°
Arg. of periapsis
175.659°
True anomaly
184.42922°
Mean anomaly
184.4331°
Eccentric anomaly
184.43116°
Mean motion
3.81634 °/min
Orbital period
94.33 mins
BSTAR
0.00044583
Loading maneuver chart data...
Computing Atmospheric mass density...
Loading historical data...
Loading historical data...
Loading historical data...
Loading historical data...
Loading historical data...
Loading historical data...
Loading historical data...

Documentation

Showing up to 5 results
|